Auburn, CA

10:25 PM PST on December 12, 2019 (GMT -0800)
Auburn Municipal

Weather History for KAUN - October, 2019

Change the Weather History Date:

Monday, October 7, 2019

  Actual Average Record
Temperature  
Mean Temperature 72 °F -  
Max Temperature 84 °F 79 °F 95 °F (1953)
Min Temperature 59 °F 53 °F 41 °F (1949)
Cooling Degree Days 6    
Growing Degree Days 22 (Base 50)    
Moisture  
Dew Point 37 °F    
Average Humidity 32    
Maximum Humidity 55    
Minimum Humidity 16    
Precipitation  
Precipitation 0.00 in - - ()
Sea Level Pressure  
Sea Level Pressure 30.00 in    
Wind  
Wind Speed 1 mph ()    
Max Wind Speed 9 mph    
Max Gust Speed 13 mph    
Visibility 10.0 miles    
Events      
Averages and records for this station are not official NWS values.
T = Trace of Precipitation, MM = Missing Value Source: Averaged Metar Reports

Daily Weather History Graph

Daily Weather History Graph

Search for Another Location

Airport or City:

Astronomy

Oct. 07, 2019 Rise Set
Actual Time 7:05 AM PDT 6:37 PM PDT
Civil Twilight 6:39 AM PDT 7:04 PM PDT
Nautical Twilight 6:08 AM PDT 7:35 PM PDT
Astronomical Twilight 5:37 AM PDT 8:06 PM PDT
Moon 3:59 PM PDT (10/7) 1:07 AM PDT (10/7)
Length of Visible Light 12h 25m
Length of Day
11h 32m
Waxing Gibbous, 70% of the Moon is Illuminated
Oct 7
Waxing Gibbous
Oct 13
Full
Oct 21
Last Quarter
Oct 27
New
Nov 4
First Quarter

Hourly Weather History & Observations

Time (PDT) Temp. Dew Point Humidity Pressure Visibility Wind Dir Wind Speed Gust Speed Precip Events Conditions
12:15 AM 64.4 °F 44.6 °F 49% 30.04 in 10.0 mi Calm Calm - N/A   Clear
12:35 AM 64.4 °F 44.6 °F 49% 30.04 in 10.0 mi Calm Calm - N/A   Clear
12:55 AM 64.4 °F 44.6 °F 49% 30.04 in 10.0 mi Calm Calm - N/A   Clear
1:15 AM 64.4 °F 42.8 °F 45% 30.04 in 10.0 mi Calm Calm - N/A   Clear
1:35 AM 66.2 °F 42.8 °F 43% 30.04 in 10.0 mi East 6.9 mph - N/A   Clear
1:55 AM 64.4 °F 42.8 °F 45% 30.05 in 10.0 mi Calm Calm - N/A   Clear
2:15 AM 64.4 °F 41.0 °F 42% 30.04 in 10.0 mi Calm Calm - N/A   Clear
2:35 AM 64.4 °F 41.0 °F 42% 30.04 in 10.0 mi East 3.5 mph - N/A   Clear
2:55 AM 64.4 °F 41.0 °F 42% 30.03 in 10.0 mi East 3.5 mph - N/A   Clear
3:15 AM 64.4 °F 41.0 °F 42% 30.03 in 10.0 mi East 9.2 mph - N/A   Clear
3:35 AM 62.6 °F 39.2 °F 42% 30.02 in 10.0 mi East 8.1 mph - N/A   Clear
3:55 AM 64.4 °F 39.2 °F 40% 30.02 in 10.0 mi Calm Calm - N/A   Clear
4:15 AM 64.4 °F 37.4 °F 37% 30.02 in 10.0 mi Calm Calm - N/A   Clear
4:35 AM 64.4 °F 37.4 °F 37% 30.02 in 10.0 mi Calm Calm - N/A   Clear
4:55 AM 60.8 °F 37.4 °F 42% 30.02 in 10.0 mi Calm Calm - N/A   Clear
5:15 AM 60.8 °F 37.4 °F 42% 30.02 in 10.0 mi Calm Calm - N/A   Clear
5:35 AM 60.8 °F 37.4 °F 42% 30.03 in 10.0 mi Calm Calm - N/A   Clear
5:55 AM 62.6 °F 35.6 °F 37% 30.03 in 10.0 mi Calm Calm - N/A   Clear
6:15 AM 62.6 °F 35.6 °F 37% 30.03 in 10.0 mi Calm Calm - N/A   Clear
6:35 AM 62.6 °F 35.6 °F 37% 30.03 in 10.0 mi East 4.6 mph - N/A   Clear
6:55 AM 62.6 °F 35.6 °F 37% 30.03 in 10.0 mi East 8.1 mph - N/A   Clear
7:15 AM 64.4 °F 33.8 °F 32% 30.03 in 10.0 mi East 9.2 mph - N/A   Clear
7:35 AM 64.4 °F 33.8 °F 32% 30.03 in 10.0 mi East 8.1 mph - N/A   Unknown
7:55 AM 64.4 °F 33.8 °F 32% 30.03 in 10.0 mi East 6.9 mph 12.7 mph N/A   Clear
8:15 AM 64.4 °F 33.8 °F 32% 30.04 in 10.0 mi East 4.6 mph 11.5 mph N/A   Clear
8:35 AM 66.2 °F 35.6 °F 32% 30.04 in 10.0 mi Calm Calm - N/A   Clear
8:55 AM 66.2 °F 35.6 °F 32% 30.05 in 10.0 mi Calm Calm - N/A   Clear
9:15 AM 66.2 °F 35.6 °F 32% 30.05 in 10.0 mi Calm Calm - N/A   Clear
9:35 AM 66.2 °F 35.6 °F 32% 30.05 in 10.0 mi East 4.6 mph 11.5 mph N/A   Clear
9:55 AM 68.0 °F 37.4 °F 33% 30.05 in 10.0 mi Calm Calm - N/A   Clear
10:15 AM 73.4 °F 37.4 °F 27% 30.05 in 10.0 mi East 8.1 mph - N/A   Clear
10:35 AM 71.6 °F 37.4 °F 29% 30.05 in 10.0 mi East 4.6 mph - N/A   Clear
10:55 AM 71.6 °F 37.4 °F 29% 30.05 in 10.0 mi Calm Calm - N/A   Clear
11:15 AM 73.4 °F 41.0 °F 31% 30.05 in 10.0 mi Calm Calm - N/A   Clear
11:35 AM 77.0 °F 41.0 °F 28% 30.05 in 10.0 mi Calm Calm - N/A   Clear
11:55 AM 78.8 °F 37.4 °F 23% 30.04 in 10.0 mi Calm Calm - N/A   Clear
12:15 PM 80.6 °F 35.6 °F 20% 30.04 in 10.0 mi Calm Calm - N/A   Clear
12:35 PM 80.6 °F 33.8 °F 18% 30.03 in 9.0 mi Calm Calm - N/A   Clear
12:55 PM 82.4 °F 33.8 °F 17% 30.02 in 10.0 mi Calm Calm - N/A   Clear
1:15 PM 82.4 °F 33.8 °F 17% 30.02 in 9.0 mi Calm Calm - N/A   Clear
1:35 PM 84.2 °F 33.8 °F 16% 30.01 in 10.0 mi Calm Calm - N/A   Clear
1:55 PM 82.4 °F 35.6 °F 19% 30.00 in 10.0 mi Calm Calm - N/A   Clear
2:15 PM 82.4 °F 33.8 °F 17% 29.99 in 10.0 mi Calm Calm - N/A   Clear
2:35 PM 84.2 °F 33.8 °F 16% 29.98 in 10.0 mi Calm Calm - N/A   Clear
2:55 PM 84.2 °F 35.6 °F 18% 29.98 in 10.0 mi Calm Calm - N/A   Clear
3:15 PM 84.2 °F 35.6 °F 18% 29.98 in 10.0 mi Calm Calm - N/A   Clear
3:55 PM 84.2 °F 35.6 °F 18% 29.97 in 10.0 mi West 3.5 mph - N/A   Clear
4:15 PM 84.2 °F 35.6 °F 18% 29.97 in 10.0 mi Calm Calm - N/A   Clear
4:35 PM 84.2 °F 33.8 °F 16% 29.96 in 10.0 mi Calm Calm - N/A   Clear
4:55 PM 82.4 °F 33.8 °F 17% 29.96 in 10.0 mi Calm Calm - N/A   Clear
5:10 PM 82.4 °F 35.6 °F 19% 29.95 in 10.0 mi Calm Calm - N/A   Clear
5:35 PM 82.4 °F 35.6 °F 19% 29.95 in 10.0 mi Calm Calm - N/A   Clear
5:55 PM 80.6 °F 35.6 °F 20% 29.94 in 10.0 mi Calm Calm - N/A   Clear
6:15 PM 75.2 °F 39.2 °F 27% 29.94 in 10.0 mi Calm Calm - N/A   Clear
6:35 PM 68.0 °F 39.2 °F 35% 29.94 in 10.0 mi Calm Calm - N/A   Clear
6:55 PM 64.4 °F 41.0 °F 42% 29.94 in 10.0 mi Calm Calm - N/A   Clear
7:15 PM 62.6 °F 41.0 °F 45% 29.95 in 10.0 mi Calm Calm - N/A   Clear
7:35 PM 59.0 °F 41.0 °F 51% 29.94 in 10.0 mi Calm Calm - N/A   Clear
7:55 PM 59.0 °F 41.0 °F 51% 29.95 in 10.0 mi Calm Calm - N/A   Clear
8:15 PM 59.0 °F 42.8 °F 55% 29.95 in 10.0 mi Calm Calm - N/A   Clear
8:35 PM 62.6 °F 39.2 °F 42% 29.95 in 10.0 mi Calm Calm - N/A   Clear
8:55 PM 68.0 °F 37.4 °F 33% 29.95 in 10.0 mi Calm Calm - N/A   Clear
9:15 PM 68.0 °F 35.6 °F 30% 29.95 in 10.0 mi Calm Calm - N/A   Clear
9:35 PM 68.0 °F 35.6 °F 30% 29.95 in 10.0 mi Calm Calm - N/A   Clear
9:55 PM 68.0 °F 35.6 °F 30% 29.95 in 10.0 mi Calm Calm - N/A   Clear
10:15 PM 69.8 °F 33.8 °F 27% 29.95 in 10.0 mi Calm Calm - N/A   Clear
10:35 PM 66.2 °F 35.6 °F 32% 29.95 in 10.0 mi Calm Calm - N/A   Clear
10:55 PM 66.2 °F 35.6 °F 32% 29.95 in 10.0 mi Calm Calm - N/A   Clear
11:15 PM 66.2 °F 35.6 °F 32% 29.95 in 10.0 mi East 4.6 mph - N/A   Clear
11:35 PM 66.2 °F 33.8 °F 30% 29.95 in 10.0 mi East 4.6 mph - N/A   Clear
11:55 PM 66.2 °F 33.8 °F 30% 29.95 in 10.0 mi Calm Calm - N/A   Clear